Location: Unspecified
(33.9239°N, 118.0544°W)
Time: 21:31:31
(UTC-07:00)

Cosmos 1674 - Visible Passes

Search period start: 25 June 2016 00:00
Search period end: 05 July 2016 00:00
Orbit: 502 x 524 km, 82.5° (Epoch: 25 June)

Date Brightness Start Highest point End Pass type
(mag) Time Alt. Az. Time Alt. Az. Time Alt. Az.
25 Jun 4.4 20:44:58 10° SE 20:47:28 17° E 20:49:59 10° NE visible
25 Jun 4.9 22:19:51 10° SW 22:22:54 23° WNW 22:25:59 10° NNW visible
26 Jun 4.6 22:03:45 10° SW 22:07:04 28° W 22:10:27 10° NNW visible
27 Jun 4.2 21:47:43 10° SSW 21:51:15 36° W 21:54:51 10° NNW visible
28 Jun 3.7 21:31:46 10° SSW 21:35:27 47° W 21:39:11 10° N visible
29 Jun 3.2 21:15:53 10° SSW 21:19:39 62° W 21:23:29 10° N visible
30 Jun 2.8 21:00:03 10° S 21:03:52 81° W 21:07:44 10° N visible
01 Jul 2.6 20:44:16 10° S 20:48:05 77° E 20:51:57 10° N visible
04 Jul 6.0 21:35:13 10° W 21:36:34 11° WNW 21:37:54 10° NW visible
